1496620800.16,31311,18.31,73840.0,4.11,3.37,3.37,0,*78
1496620801.39,31312,18.31,73838.0,4.11,3.37,3.37,0,*7B
1496620802.59,31313,18.38,73840.0,4.11,3.37,3.29,0,*75
1496620803.82,31314,18.38,73840.5,4.11,3.37,3.37,0,*7D
1496620805.05,31315,18.38,73844.8,4.09,3.37,3.29,0,*7A
1496620806.25,31316,18.31,73840.5,4.11,3.29,3.37,0,*70
1496620807.48,31317,18.31,73838.8,4.11,3.37,3.37,0,*7E
1496620808.68,31318,18.38,73840.3,4.11,3.37,3.29,0,*7E
1496620809.94,31319,18.38,73842.8,4.09,3.37,3.37,0,*79
1496620811.17,31320,18.38,73842.8,4.11,3.37,3.41,0,*7B
1496620812.41,31321,18.31,73836.8,4.11,3.41,3.41,0,*7B
1496620813.65,31322,18.38,73842.0,4.11,3.41,3.41,0,*78
1496620814.87,31323,18.31,73840.0,4.13,3.55,3.49,0,*76
1496620816.13,31324,18.31,73838.3,4.13,3.45,3.45,0,*7C
1496620817.35,31325,18.31,73840.3,4.11,3.45,3.53,0,*78
1496620818.57,31326,18.38,73840.8,4.11,3.53,3.53,0,*7C
1496620819.79,31327,18.31,73840.0,4.11,3.53,3.53,0,*7D
1496620821.01,31328,18.38,73846.3,4.11,3.45,3.53,0,*75
1496620822.25,31329,18.31,73838.8,4.11,3.41,3.41,0,*73
1496620823.49,31330,18.31,73838.0,4.11,3.41,3.45,0,*7F
1496620824.74,31331,18.38,73842.8,4.13,3.45,3.49,0,*74
1496620825.97,31332,18.38,73842.8,4.11,3.53,3.45,0,*7E
1496620827.16,31333,18.31,73840.5,4.11,3.53,3.63,0,*7B
1496620828.34,31334,18.31,73838.3,4.11,3.55,3.55,0,*7F
1496620829.53,31335,18.38,73840.3,4.13,3.59,3.59,0,*7C
1496620830.79,31336,18.38,73842.5,4.13,3.67,3.67,0,*7F
1496620832.01,31337,18.38,73840.0,4.13,3.59,3.67,0,*73
1496620833.24,31338,18.38,73842.5,4.13,3.59,3.67,0,*7C
1496620834.46,31339,18.38,73840.8,4.13,3.59,3.67,0,*7D
1496620835.72,31340,18.38,73842.3,4.13,3.67,3.67,0,*7E
1496620836.97,31341,18.31,73840.5,4.13,3.71,3.67,0,*78
1496620838.23,31342,18.38,73842.0,4.17,3.75,3.71,0,*7C
1496620839.5,31343,18.38,73842.8,4.17,3.75,3.71,0,*7D
1496620840.75,31344,18.31,73842.5,4.17,3.71,3.75,0,*7A
1496620842.01,31345,18.31,73840.8,4.17,3.71,3.71,0,*7F
1496620843.21,31346,18.38,73842.3,4.17,3.59,3.63,0,*75
1496620844.41,31347,18.38,73840.5,4.17,3.63,3.63,0,*7D
1496620845.61,31348,18.38,73840.8,4.13,3.55,3.55,0,*76
1496620846.83,31349,18.38,73842.3,4.17,3.49,3.63,0,*7B
1496620848.03,31350,18.38,73840.0,4.17,3.59,3.59,0,*7B
1496620849.23,31351,18.31,73842.5,4.17,3.63,3.63,0,*7A
1496620850.46,31352,18.31,73842.5,4.17,3.53,3.59,0,*73
1496620851.71,31353,18.38,73842.5,4.13,3.49,3.45,0,*70
1496620852.96,31354,18.38,73846.5,4.13,3.49,3.45,0,*77
1496620854.21,31355,18.31,73842.5,4.13,3.49,3.49,0,*7A
1496620855.46,31356,18.38,73842.8,4.17,3.53,3.53,0,*7D
1496620856.7,31357,18.31,73840.3,4.17,3.53,3.53,0,*7C
1496620857.95,31358,18.31,73840.0,4.17,3.53,3.53,0,*73
1496620859.15,31359,18.31,73840.5,4.17,3.63,3.59,0,*7B
1496620860.38,31360,18.38,73840.8,4.17,3.59,3.53,0,*72
1496620861.58,31361,18.38,73842.0,4.17,3.59,3.59,0,*79
1496620862.78,31362,18.31,73842.0,4.17,3.59,3.63,0,*73
1496620863.98,31363,18.38,73844.5,4.17,3.59,3.63,0,*72
1496620865.18,31364,18.31,73840.3,4.17,3.63,3.63,0,*7C
1496620866.35,31365,18.31,73842.5,4.19,3.63,3.63,0,*73
1496620867.52,31366,18.31,73840.8,4.19,3.59,3.59,0,*70
1496620868.72,31367,18.31,73840.3,4.17,3.59,3.63,0,*76
1496620869.92,31368,18.31,73842.0,4.17,3.63,3.63,0,*70
1496620871.12,31369,18.38,73842.5,4.17,3.63,3.59,0,*78
1496620872.35,31370,18.38,73842.3,4.17,3.63,3.71,0,*7A
1496620873.55,31371,18.38,73842.8,4.17,3.63,3.63,0,*78
1496620874.75,31372,18.31,73840.3,4.17,3.63,3.59,0,*72
1496620875.95,31373,18.31,73840.8,4.17,3.63,3.59,0,*73
1496620877.16,31374,18.31,73838.8,4.17,3.59,3.63,0,*74
1496620878.36,31375,18.38,73842.8,4.17,3.63,3.63,0,*7C
1496620879.56,31376,18.31,73842.5,4.17,3.63,3.63,0,*7F
1496620880.76,31377,18.31,73840.3,4.17,3.59,3.59,0,*7E
1496620881.93,31378,18.31,73842.0,4.19,3.59,3.59,0,*7F
1496620883.15,31379,18.38,73846.5,4.19,3.53,3.53,0,*7E
1496620884.37,31380,18.38,73846.5,4.19,3.53,3.49,0,*73
1496620885.59,31381,18.31,73842.5,4.19,3.53,3.49,0,*72
1496620886.82,31382,18.31,73840.3,4.19,3.53,3.49,0,*71
1496620888.03,31383,18.38,73842.0,4.19,3.53,3.53,0,*7B
1496620889.25,31384,18.38,73842.0,4.19,3.53,3.53,0,*7C
1496620890.47,31385,18.38,73840.3,4.19,3.53,3.49,0,*76
1496620891.67,31386,18.31,73838.3,4.21,3.55,3.55,0,*75
1496620892.86,31387,18.38,73840.8,4.19,3.59,3.53,0,*75
1496620894.03,31388,18.31,73842.3,4.19,3.63,3.59,0,*79
1496620895.2,31389,18.38,73844.3,4.19,3.59,3.63,0,*78
1496620896.38,31390,18.38,73842.0,4.19,3.63,3.63,0,*79
1496620897.55,31391,18.31,73840.3,4.19,3.63,3.63,0,*78
1496620898.72,31392,18.38,73844.5,4.19,3.59,3.59,0,*7B
1496620899.89,31393,18.38,73844.8,4.19,3.59,3.59,0,*7A
1496620901.08,31394,18.38,73846.3,4.19,3.53,3.59,0,*77
1496620902.28,31395,18.31,73840.3,4.19,3.53,3.63,0,*7F
1496620903.47,31396,18.31,73840.5,4.19,3.53,3.59,0,*75
1496620904.69,31397,18.38,73842.8,4.19,3.53,3.53,0,*7E
1496620905.91,31398,18.38,73844.3,4.19,3.49,3.49,0,*71
1496620907.14,31399,18.38,73842.0,4.19,3.49,3.49,0,*70
1496620908.36,31400,18.31,73840.3,4.19,3.49,3.49,0,*77
1496620909.58,31401,18.31,73838.5,4.19,3.33,3.37,0,*72
1496620910.76,31402,18.38,73844.3,4.19,3.25,3.25,0,*75
1496620911.98,31403,18.31,73838.8,4.19,3.23,3.23,0,*74
1496620913.24,31404,18.31,73836.0,4.17,3.23,3.23,0,*7D
1496620914.49,31405,18.38,73838.0,4.17,3.23,3.23,0,*7C
1496620915.74,31406,18.31,73836.0,4.17,3.23,3.23,0,*7F
1496620916.97,31407,18.31,73838.8,4.17,3.25,3.23,0,*78
1496620918.22,31408,18.31,73834.5,4.13,3.19,3.23,0,*7C
1496620919.47,31409,18.38,73834.8,4.13,3.19,3.11,0,*7C
1496620920.71,31410,18.38,73834.8,4.13,3.19,3.11,0,*74
1496620921.97,31411,18.38,73834.3,4.13,3.11,3.11,0,*7D
1496620923.23,31412,18.38,73832.0,4.13,3.11,3.11,0,*7E
1496620924.48,31413,18.31,73830.5,4.13,3.07,3.07,0,*7F
1496620925.72,31414,18.31,73830.3,4.13,3.07,2.99,0,*7E
1496620926.92,31415,18.31,73830.5,4.13,2.99,2.99,0,*79
1496620928.15,31416,18.38,73832.8,4.13,3.07,2.99,0,*7C
1496620929.38,31417,18.31,73832.0,4.13,3.07,2.99,0,*7D
1496620930.62,31418,18.38,73832.5,4.11,3.03,3.03,0,*76
1496620931.85,31419,18.38,73834.3,4.11,3.03,3.03,0,*77
1496620933.08,31420,18.31,73832.0,4.11,3.03,3.03,0,*7D
1496620934.32,31421,18.31,73828.8,4.11,3.03,3.03,0,*7C
1496620935.55,31422,18.38,73832.8,4.09,3.25,3.15,0,*75
1496620936.81,31423,18.38,73832.3,4.09,3.19,3.15,0,*7B
1496620938.04,31424,18.31,73832.5,4.09,3.25,3.15,0,*73
1496620939.29,31425,18.31,73834.5,4.09,3.19,3.15,0,*7D
1496620940.55,31426,18.38,73834.8,4.09,3.19,3.15,0,*7E
1496620941.78,31427,18.31,73836.5,4.09,3.25,3.19,0,*7C
1496620942.98,31428,18.38,73836.5,4.09,3.29,3.29,0,*7C
1496620944.19,31429,18.38,73838.5,4.09,3.29,3.25,0,*71
1496620945.4,31430,18.31,73838.0,4.09,3.29,3.25,0,*79
1496620946.63,31431,18.31,73832.5,4.09,3.25,3.19,0,*7B
1496620947.87,31432,18.38,73836.0,4.09,3.19,3.19,0,*77
1496620949.12,31433,18.31,73836.0,4.09,3.19,3.19,0,*76
1496620950.38,31434,18.31,73832.8,4.09,3.15,3.19,0,*7D
1496620951.63,31435,18.38,73836.5,4.09,3.19,3.15,0,*7C
1496620952.89,31436,18.31,73836.5,4.09,3.15,3.07,0,*70
1496620954.13,31437,18.31,73836.8,4.07,3.11,3.03,0,*7F
1496620955.36,31438,18.31,73838.0,4.07,3.11,3.03,0,*70
1496620956.59,31439,18.38,73840.5,4.07,3.23,3.11,0,*73
1496620957.83,31440,18.31,73836.5,4.07,3.23,3.15,0,*79
1496620959.05,31441,18.31,73838.8,4.09,3.19,3.25,0,*7C
1496620960.28,31442,18.31,73836.0,4.09,3.19,3.25,0,*7F
1496620961.54,31443,18.38,73838.0,4.05,3.23,3.23,0,*7D
1496620962.74,31444,18.38,73840.5,4.07,3.25,3.23,0,*7E
1496620963.92,31445,18.38,73842.0,4.07,3.25,3.25,0,*79
1496620965.12,31446,18.38,73838.0,4.07,3.25,3.23,0,*7C
1496620966.35,31447,18.31,73838.8,4.07,3.33,3.33,0,*7B
1496620967.57,31448,18.31,73836.0,4.07,3.33,3.33,0,*74
1496620968.83,31449,18.31,73836.3,4.09,3.37,3.37,0,*7B
1496620970.04,31450,18.38,73842.3,4.07,3.25,3.33,0,*7A
1496620971.27,31451,18.31,73838.5,4.07,3.33,3.33,0,*7C
1496620972.52,31452,18.38,73840.5,4.09,3.37,3.37,0,*71
1496620973.75,31453,18.38,73838.3,4.07,3.37,3.37,0,*7E
1496620974.97,31454,18.31,73838.8,4.07,3.37,3.37,0,*79
1496620976.2,31455,18.38,73840.0,4.07,3.37,3.37,0,*78
1496620977.43,31456,18.31,73834.8,4.07,3.33,3.37,0,*7F
1496620978.68,31457,18.31,73836.8,4.09,3.37,3.37,0,*74
1496620979.93,31458,18.31,73838.3,4.09,3.37,3.37,0,*7B
1496620981.19,31459,18.38,73840.5,4.09,3.37,3.37,0,*7A
1496620982.45,31460,18.31,73836.8,4.09,3.37,3.41,0,*71
1496620983.67,31461,18.31,73838.5,4.07,3.33,3.37,0,*7B
1496620984.88,31462,18.31,73838.5,4.07,3.25,3.37,0,*7F
1496620986.14,31463,18.31,73838.0,4.09,3.37,3.41,0,*72
1496620987.39,31464,18.38,73836.5,4.09,3.37,3.37,0,*74
1496620988.62,31465,18.38,73840.0,4.09,3.37,3.25,0,*76
1496620989.83,31466,18.31,73834.3,4.09,3.29,3.25,0,*7A
1496620991.04,31467,18.31,73834.3,4.09,3.29,3.29,0,*77
1496620992.24,31468,18.31,73838.5,4.09,3.25,3.25,0,*78
1496620993.45,31469,18.38,73838.0,4.07,3.25,3.23,0,*71
1496620994.68,31470,18.31,73832.5,4.07,3.23,3.15,0,*7A
1496620995.89,31471,18.31,73836.0,4.07,3.15,3.25,0,*7D
1496620997.12,31472,18.31,73834.5,4.07,3.15,3.23,0,*78
1496620998.36,31473,18.31,73834.5,4.07,3.15,3.15,0,*7C
1496620999.59,31474,18.31,73836.8,4.07,3.23,3.15,0,*7E
1496621000.83,31475,18.31,73836.3,4.07,3.15,3.15,0,*7A
1496621002.1,31476,18.31,73838.8,4.05,3.15,3.15,0,*7B
1496621003.36,31477,18.31,73836.0,4.05,3.23,3.15,0,*7F
1496621004.62,31478,18.31,73836.8,4.05,3.15,3.23,0,*70
1496621005.85,31479,18.31,73838.8,4.07,3.23,3.23,0,*76
1496621007.07,31480,18.31,73836.0,4.07,3.23,3.23,0,*70
1496621008.31,31481,18.31,73838.8,4.07,3.23,3.15,0,*74
1496621009.54,31482,18.31,73838.8,4.07,3.23,3.23,0,*72
1496621010.74,31483,18.31,73838.0,4.07,3.23,3.25,0,*75
1496621011.95,31484,18.31,73836.5,4.05,3.25,3.25,0,*76
1496621013.16,31485,18.38,73840.0,4.05,3.25,3.25,0,*77
1496621014.41,31486,18.38,73840.5,4.05,3.23,3.23,0,*74
1496621015.65,31487,18.31,73836.3,4.05,3.23,3.25,0,*73
1496621016.91,31488,18.31,73838.8,4.05,3.23,3.15,0,*7F
1496621018.16,31489,18.31,73836.8,4.05,3.23,3.23,0,*7B
1496621019.39,31490,18.31,73836.8,4.07,3.15,3.23,0,*74
1496621020.59,31491,18.31,73840.3,4.07,3.25,3.23,0,*76
1496621021.81,31492,18.31,73836.8,4.07,3.33,3.23,0,*72
1496621023.04,31493,18.31,73840.5,4.05,3.25,3.23,0,*76
1496621024.28,31494,18.38,73838.0,4.05,3.25,3.33,0,*70
1496621025.48,31495,18.31,73838.5,4.05,3.25,3.25,0,*76
1496621026.68,31496,18.31,73836.3,4.03,3.29,3.23,0,*79
1496621027.91,31497,18.31,73838.0,4.05,3.25,3.23,0,*72
1496621029.09,31498,18.31,73838.3,4.07,3.25,3.25,0,*79
1496621030.32,31499,18.31,73838.8,4.05,3.33,3.25,0,*7D
1496621031.53,31500,18.38,73838.3,4.05,3.25,3.25,0,*7B
1496621032.73,31501,18.31,73838.3,4.05,3.25,3.25,0,*7A
1496621034.0,31502,18.31,73836.5,4.05,3.23,3.15,0,*7C
1496621035.26,31503,18.31,73836.8,4.05,3.15,3.15,0,*78
1496621036.52,31504,18.31,73836.8,4.05,3.23,3.15,0,*7A
1496621037.78,31505,18.31,73838.0,4.05,3.23,3.23,0,*7E
1496621039.0,31506,18.31,73832.0,4.05,3.25,3.23,0,*7B
1496621040.23,31507,18.31,73834.5,4.05,3.25,3.23,0,*7A
1496621041.44,31508,18.31,73834.5,4.05,3.25,3.25,0,*73
1496621042.69,31509,18.38,73836.5,4.05,3.33,3.33,0,*72
1496621043.93,31510,18.38,73836.3,4.05,3.25,3.33,0,*7D
1496621045.18,31511,18.31,73834.0,4.05,3.33,3.33,0,*7B
1496621046.41,31512,18.31,73834.3,4.05,3.25,3.23,0,*7E
1496621047.66,31513,18.31,73834.0,4.05,3.33,3.23,0,*78
1496621048.91,31514,18.31,73834.3,4.05,3.33,3.33,0,*7E
1496621050.17,31515,18.31,73832.8,4.05,3.33,3.33,0,*7F
1496621051.4,31516,18.31,73834.5,4.05,3.25,3.23,0,*7A
1496621052.65,31517,18.31,73832.0,4.05,3.33,3.23,0,*7C
1496621053.87,31518,18.31,73832.8,4.03,3.23,3.23,0,*74
1496621055.07,31519,18.31,73832.3,4.03,3.29,3.23,0,*7F
1496621056.27,31520,18.31,73834.8,4.03,3.29,3.23,0,*75
1496621057.47,31521,18.31,73836.3,4.03,3.23,3.29,0,*74
1496621058.68,31522,18.31,73834.0,4.03,3.23,3.29,0,*77
1496621059.93,31523,18.31,73834.3,4.05,3.33,3.33,0,*7A
1496621061.16,31524,18.31,73832.0,4.03,3.23,3.23,0,*7B
1496621062.38,31525,18.38,73832.3,4.03,3.23,3.23,0,*7A
1496621063.6,31526,18.31,73832.3,4.03,3.19,3.19,0,*79
1496621064.82,31527,18.31,73832.0,4.03,3.19,3.19,0,*78
1496621066.04,31528,18.31,73834.5,4.03,3.19,3.19,0,*77
1496621067.21,31529,18.31,73832.0,4.03,3.25,3.25,0,*76
1496621068.44,31530,18.31,73830.8,4.01,3.25,3.19,0,*73
1496621069.64,31531,18.38,73832.5,4.03,3.29,3.23,0,*75
1496621070.82,31532,18.31,73830.3,4.03,3.29,3.29,0,*7C
1496621072.0,31533,18.31,73828.3,4.03,3.29,3.29,0,*7D
1496621073.18,31534,18.31,73832.0,4.03,3.29,3.29,0,*7A
1496621074.4,31535,18.31,73832.3,4.03,3.23,3.23,0,*7B
1496621075.6,31536,18.31,73830.5,4.03,3.23,3.29,0,*72
1496621076.81,31537,18.31,73834.5,4.03,3.23,3.29,0,*73
1496621078.01,31538,18.38,73832.0,4.03,3.29,3.23,0,*7C
1496621079.19,31539,18.31,73830.8,4.03,3.29,3.29,0,*77
1496621080.45,31540,18.38,73832.5,4.01,3.15,3.15,0,*7B
1496621081.72,31541,18.31,73832.5,4.01,3.07,3.15,0,*79
1496621082.98,31542,18.38,73830.8,4.01,3.15,3.07,0,*7A
1496621084.24,31543,18.38,73834.5,4.01,3.15,3.15,0,*78
1496621085.47,31544,18.31,73830.5,4.03,3.23,3.23,0,*7D
1496621086.7,31545,18.38,73832.3,4.01,3.25,3.19,0,*71
1496621087.87,31546,18.31,73832.5,4.03,3.29,3.29,0,*7F
1496621089.1,31547,18.31,73830.5,4.01,3.25,3.19,0,*73
1496621090.32,31548,18.31,73830.3,4.03,3.19,3.19,0,*71
1496621091.54,31549,18.31,73830.3,4.03,3.19,3.19,0,*70
1496621092.76,31550,18.31,73834.8,4.01,3.25,3.19,0,*75
1496621093.97,31551,18.31,73832.3,4.01,3.25,3.25,0,*7B
1496621095.22,31552,18.31,73832.8,4.01,3.19,3.19,0,*78
1496621096.48,31553,18.38,73838.8,4.01,3.15,3.19,0,*75
1496621097.69,31554,18.31,73834.8,4.03,3.19,3.19,0,*7C
1496621098.96,31555,18.31,73832.0,4.01,3.15,3.07,0,*7C
1496621100.22,31556,18.38,73834.8,4.01,3.03,3.03,0,*7C
1496621101.48,31557,18.31,73832.5,4.01,3.15,3.19,0,*71
1496621102.7,31558,18.31,73834.3,4.03,3.19,3.11,0,*78
1496621103.92,31559,18.38,73836.0,4.03,3.19,3.07,0,*7E
1496621105.19,31560,18.31,73834.3,4.01,3.15,3.15,0,*79
1496621106.43,31561,18.31,73832.3,4.01,3.19,3.19,0,*78
1496621107.66,31562,18.38,73836.0,4.03,3.23,3.23,0,*79
1496621108.88,31563,18.31,73836.3,4.03,3.23,3.23,0,*78
1496621110.09,31564,18.31,73832.3,4.01,3.25,3.25,0,*7D
1496621111.3,31565,18.31,73838.8,4.01,3.25,3.25,0,*7C
1496621112.5,31566,18.31,73834.0,4.01,3.25,3.25,0,*7F
1496621113.74,31567,18.38,73838.0,4.01,3.29,3.33,0,*75
1496621115.0,31568,18.31,73836.5,4.01,3.41,3.37,0,*70
1496621116.25,31569,18.31,73836.5,4.01,3.33,3.33,0,*70
1496621117.48,31570,18.38,73838.8,4.01,3.33,3.29,0,*73
1496621118.69,31571,18.38,73836.5,4.01,3.29,3.29,0,*79
1496621119.9,31572,18.31,73838.3,4.01,3.29,3.29,0,*7A
1496621121.1,31573,18.31,73838.3,4.01,3.29,3.29,0,*7B
1496621122.31,31574,18.31,73838.0,4.01,3.29,3.29,0,*7C
1496621123.54,31575,18.31,73836.3,4.03,3.37,3.33,0,*7B
1496621124.75,31576,18.38,73838.5,4.01,3.29,3.29,0,*7E
1496621125.96,31577,18.31,73834.3,4.01,3.29,3.25,0,*73
1496621127.18,31578,18.38,73832.5,4.01,3.29,3.19,0,*73
1496621128.39,31579,18.38,73832.5,4.03,3.23,3.29,0,*79
1496621129.59,31580,18.31,73830.5,4.03,3.29,3.19,0,*76
1496621130.84,31581,18.31,73832.8,4.01,3.19,3.15,0,*7A
1496621132.09,31582,18.31,73830.5,4.01,3.19,3.19,0,*75
1496621133.27,31583,18.31,73832.0,4.03,3.29,3.29,0,*76
1496621134.5,31584,18.31,73832.3,4.01,3.25,3.19,0,*7C
1496621135.69,31585,18.38,73832.0,4.03,3.29,3.23,0,*7A
1496621136.92,31586,18.31,73832.3,4.01,3.25,3.19,0,*7E
1496621138.12,31587,18.38,73832.8,4.03,3.29,3.23,0,*78
1496621139.3,31588,18.31,73834.5,4.03,3.29,3.29,0,*7D
1496621140.55,31589,18.38,73836.3,4.01,3.19,3.19,0,*7E
1496621141.75,31590,18.31,73832.5,4.01,3.25,3.25,0,*76
1496621142.95,31591,18.31,73830.8,4.03,3.25,3.19,0,*7A
1496621144.18,31592,18.31,73826.0,4.01,3.25,3.19,0,*7B
1496621145.44,31593,18.31,73830.5,4.01,3.15,3.15,0,*75
1496621146.65,31594,18.31,73828.3,4.01,3.25,3.25,0,*72
1496621147.88,31595,18.31,73830.0,4.01,3.25,3.19,0,*7C
1496621149.08,31596,18.31,73830.5,4.01,3.25,3.25,0,*70
1496621150.26,31597,18.31,73830.3,4.03,3.25,3.25,0,*73
1496621151.44,31598,18.38,73830.8,4.03,3.29,3.25,0,*70
1496621152.65,31599,18.31,73828.8,4.01,3.25,3.25,0,*7F
1496621153.86,31600,18.31,73830.8,4.01,3.25,3.25,0,*7C
1496621155.06,31601,18.38,73830.3,4.01,3.25,3.25,0,*7D
1496621156.26,31602,18.38,73832.3,4.03,3.29,3.23,0,*76
1496621157.49,31603,18.38,73832.8,4.03,3.23,3.23,0,*7D
1496621158.7,31604,18.31,73830.0,4.03,3.19,3.19,0,*7A
1496621159.97,31605,18.31,73828.5,4.01,3.15,3.15,0,*79
1496621161.22,31606,18.31,73824.3,4.01,3.19,3.15,0,*76
1496621162.48,31607,18.31,73824.0,4.01,3.15,3.19,0,*77
1496621163.73,31608,18.38,73828.3,4.01,3.19,3.19,0,*74
1496621164.96,31609,18.38,73830.0,4.01,3.19,3.25,0,*7A
1496621166.16,31610,18.31,73828.3,4.01,3.25,3.25,0,*7D
1496621167.39,31611,18.31,73828.8,4.01,3.19,3.25,0,*73
1496621168.62,31612,18.31,73830.0,4.01,3.19,3.25,0,*70
1496621169.87,31613,18.31,73826.0,4.01,3.19,3.19,0,*7E
1496621171.12,31614,18.31,73828.0,4.01,3.19,3.19,0,*79
1496621172.32,31615,18.31,73828.5,4.03,3.29,3.15,0,*75
1496621173.53,31616,18.31,73828.8,4.01,3.25,3.25,0,*7B
1496621174.74,31617,18.31,73830.0,4.01,3.25,3.29,0,*76
1496621175.94,31618,18.38,73832.3,4.01,3.25,3.25,0,*75
1496621177.15,31619,18.31,73830.3,4.01,3.25,3.25,0,*74
1496621178.33,31620,18.31,73830.8,4.03,3.29,3.29,0,*7C
1496621179.56,31621,18.31,73832.0,4.01,3.19,3.25,0,*70
1496621180.76,31622,18.31,73834.3,4.03,3.23,3.29,0,*74
1496621182.01,31623,18.31,73832.0,4.01,3.19,3.19,0,*7D
1496621183.24,31624,18.31,73834.0,4.01,3.25,3.19,0,*75
1496621184.44,31625,18.31,73828.5,4.01,3.25,3.25,0,*7B
1496621185.65,31626,18.31,73828.0,4.01,3.29,3.25,0,*74
1496621186.86,31627,18.31,73832.0,4.01,3.25,3.25,0,*79
1496621188.04,31628,18.31,73834.0,4.03,3.29,3.29,0,*74
1496621189.22,31629,18.31,73834.8,4.03,3.29,3.29,0,*75
1496621190.42,31630,18.31,73834.3,4.01,3.25,3.29,0,*73
1496621191.63,31631,18.38,73834.8,4.01,3.25,3.29,0,*72
1496621192.84,31632,18.31,73828.5,4.01,3.29,3.29,0,*7D
1496621194.05,31633,18.31,73832.8,4.01,3.29,3.29,0,*7C
1496621195.26,31634,18.38,73830.8,4.01,3.29,3.29,0,*7B
1496621196.46,31635,18.31,73828.5,4.01,3.29,3.29,0,*7A
1496621197.67,31636,18.31,73828.3,4.01,3.29,3.29,0,*79
1496621198.9,31637,18.38,73832.0,4.01,3.33,3.29,0,*73
1496621200.16,31638,18.31,73830.3,4.01,3.33,3.33,0,*77
1496621201.38,31639,18.31,73828.0,4.01,3.33,3.29,0,*7D
1496621202.61,31640,18.31,73830.5,4.03,3.37,3.33,0,*7E
1496621203.84,31641,18.31,73828.8,4.01,3.33,3.29,0,*72
1496621205.06,31642,18.38,73836.3,4.03,3.33,3.37,0,*7C
1496621206.29,31643,18.31,73834.5,4.03,3.37,3.37,0,*79
1496621207.51,31644,18.31,73832.5,4.03,3.33,3.33,0,*7E
1496621208.74,31645,18.31,73830.3,4.03,3.33,3.33,0,*7F
1496621209.99,31646,18.31,73828.5,4.01,3.33,3.33,0,*7E
1496621211.2,31647,18.31,73830.3,4.01,3.29,3.29,0,*7F
1496621212.41,31648,18.31,73832.5,4.01,3.29,3.29,0,*70
1496621213.64,31649,18.31,73828.3,4.03,3.37,3.33,0,*77
1496621214.86,31650,18.31,73830.0,4.03,3.37,3.37,0,*7B
1496621216.12,31651,18.31,73834.3,4.01,3.33,3.33,0,*78
1496621217.34,31652,18.31,73832.3,4.03,3.37,3.37,0,*79
1496621218.57,31653,18.31,73830.5,4.03,3.37,3.33,0,*7C
1496621219.8,31654,18.38,73832.8,4.03,3.37,3.45,0,*7A
1496621221.06,31655,18.31,73830.3,4.05,3.41,3.49,0,*70
1496621222.33,31656,18.38,73830.8,4.05,3.41,3.41,0,*7B
1496621223.55,31657,18.31,73828.5,4.03,3.37,3.45,0,*79
1496621224.78,31658,18.31,73828.5,4.03,3.37,3.37,0,*73
1496621226.0,31659,18.31,73830.5,4.03,3.37,3.37,0,*72
1496621227.23,31660,18.31,73828.5,4.03,3.37,3.37,0,*78
1496621228.45,31661,18.31,73830.3,4.03,3.33,3.33,0,*79
1496621229.68,31662,18.38,73830.0,4.03,3.33,3.33,0,*7A
1496621230.91,31663,18.31,73830.5,4.03,3.33,3.33,0,*7B
1496621232.11,31664,18.38,73832.0,4.03,3.29,3.33,0,*77
1496621233.32,31665,18.31,73834.0,4.03,3.29,3.33,0,*76
1496621234.52,31666,18.38,73830.8,4.03,3.29,3.33,0,*75
1496621235.7,31667,18.31,73830.8,4.03,3.29,3.29,0,*7F
1496621236.88,31668,18.38,73834.5,4.03,3.29,3.29,0,*70
1496621238.06,31669,18.38,73834.3,4.03,3.29,3.29,0,*71
1496621239.24,31670,18.31,73830.3,4.03,3.29,3.29,0,*79
1496621240.41,31671,18.31,73828.5,4.03,3.29,3.29,0,*78
1496621241.61,31672,18.31,73824.8,4.03,3.29,3.23,0,*71
1496621242.82,31673,18.31,73828.3,4.01,3.25,3.25,0,*78
1496621244.0,31674,18.31,73826.8,4.03,3.29,3.29,0,*7D
1496621245.23,31675,18.31,73828.0,4.01,3.19,3.25,0,*71
1496621246.43,31676,18.31,73830.5,4.01,3.25,3.25,0,*7D
1496621247.61,31677,18.31,73824.5,4.03,3.29,3.29,0,*7E
1496621248.79,31678,18.38,73830.5,4.03,3.29,3.29,0,*71
1496621250.02,31679,18.31,73828.5,4.03,3.33,3.33,0,*70
1496621251.25,31680,18.38,73828.3,4.03,3.37,3.33,0,*72
1496621252.45,31681,18.31,73830.0,4.01,3.29,3.29,0,*75
1496621253.63,31682,18.31,73826.3,4.03,3.29,3.29,0,*74
1496621254.86,31683,18.38,73830.0,4.03,3.33,3.33,0,*75
1496621256.08,31684,18.31,73830.3,4.03,3.33,3.33,0,*72
1496621257.31,31685,18.31,73832.0,4.03,3.37,3.33,0,*77
1496621258.53,31686,18.31,73830.3,4.03,3.33,3.37,0,*74
1496621259.76,31687,18.31,73828.5,4.03,3.37,3.33,0,*75
1496621260.99,31688,18.31,73828.5,4.03,3.37,3.33,0,*7A
1496621262.22,31689,18.38,73828.0,4.03,3.33,3.33,0,*7F
1496621263.44,31690,18.31,73830.0,4.03,3.33,3.33,0,*77
1496621264.67,31691,18.31,73830.3,4.03,3.33,3.33,0,*76
1496621265.89,31692,18.31,73830.5,4.03,3.33,3.33,0,*75
1496621267.1,31693,18.31,73828.8,4.03,3.29,3.33,0,*7F
1496621268.28,31694,18.31,73830.3,4.03,3.29,3.29,0,*73
1496621269.47,31695,18.31,73828.5,4.03,3.25,3.19,0,*7D
1496621270.65,31696,18.31,73830.5,4.03,3.29,3.29,0,*71
1496621271.86,31697,18.31,73830.3,4.03,3.29,3.33,0,*7B
1496621273.06,31698,18.31,73828.8,4.03,3.29,3.23,0,*75
1496621274.26,31699,18.31,73830.8,4.01,3.25,3.25,0,*7C
1496621275.47,31700,18.31,73830.8,4.03,3.23,3.29,0,*75
1496621276.65,31701,18.38,73830.3,4.03,3.29,3.29,0,*7E
1496621277.83,31702,18.31,73828.5,4.03,3.29,3.29,0,*7D
1496621279.03,31703,18.31,73830.0,4.03,3.23,3.29,0,*76
1496621280.26,31704,18.31,73830.5,4.01,3.19,3.25,0,*76
1496621281.47,31705,18.31,73830.3,4.01,3.25,3.25,0,*78
1496621282.67,31706,18.31,73828.5,4.01,3.25,3.25,0,*7B
1496621283.85,31707,18.31,73826.8,4.03,3.29,3.29,0,*78
1496621285.03,31708,18.31,73826.8,4.03,3.29,3.29,0,*77
1496621286.24,31709,18.38,73830.0,4.01,3.25,3.25,0,*74
1496621287.42,31710,18.31,73830.8,4.03,3.29,3.29,0,*7E
1496621288.62,31711,18.31,73824.5,4.01,3.25,3.25,0,*7D
1496621289.85,31712,18.31,73830.8,4.01,3.19,3.25,0,*71
1496621291.06,31713,18.31,73828.8,4.01,3.25,3.25,0,*7F
1496621292.27,31714,18.31,73824.8,4.01,3.25,3.25,0,*78
1496621293.47,31715,18.31,73830.0,4.01,3.25,3.25,0,*79
1496621294.72,31716,18.31,73830.0,4.01,3.19,3.19,0,*7A
1496621295.9,31717,18.31,73828.5,4.03,3.29,3.25,0,*75
1496621297.08,31718,18.38,73830.0,4.03,3.29,3.25,0,*7A
1496621298.29,31719,18.31,73830.0,4.01,3.25,3.25,0,*75
1496621299.51,31720,18.31,73830.8,4.03,3.33,3.33,0,*7D
1496621300.74,31721,18.31,73830.8,4.01,3.33,3.29,0,*75
1496621301.95,31722,18.31,73828.0,4.01,3.29,3.29,0,*7D
1496621303.17,31723,18.31,73828.0,4.03,3.33,3.33,0,*7E
1496621304.38,31724,18.31,73828.3,4.01,3.29,3.25,0,*77
1496621305.59,31725,18.31,73828.0,4.01,3.29,3.25,0,*76
1496621306.82,31726,18.31,73830.5,4.01,3.33,3.25,0,*7E
1496621308.03,31727,18.31,73828.8,4.01,3.29,3.29,0,*78
1496621309.23,31728,18.31,73830.8,4.01,3.29,3.29,0,*77
1496621310.46,31729,18.31,73828.0,4.01,3.33,3.29,0,*7D
1496621311.67,31730,18.31,73830.5,4.01,3.29,3.29,0,*7E
1496621312.88,31731,18.31,73830.3,4.01,3.25,3.29,0,*73
1496621314.11,31732,18.31,73828.3,4.01,3.19,3.29,0,*7F
1496621315.33,31733,18.38,73828.5,4.03,3.23,3.23,0,*7F
1496621316.56,31734,18.31,73828.3,4.01,3.19,3.25,0,*75
1496621317.74,31735,18.31,73826.3,4.03,3.29,3.29,0,*79
1496621318.95,31736,18.31,73830.0,4.01,3.25,3.25,0,*78
1496621320.17,31737,18.31,73828.8,4.01,3.25,3.19,0,*76
1496621321.38,31738,18.31,73830.8,4.01,3.25,3.25,0,*76
1496621322.61,31739,18.31,73830.3,4.01,3.19,3.25,0,*78
1496621323.82,31740,18.31,73830.8,4.01,3.25,3.25,0,*79
1496621325.04,31741,18.31,73828.5,4.01,3.25,3.19,0,*77
1496621326.25,31742,18.31,73826.5,4.01,3.25,3.25,0,*7B
1496621327.46,31743,18.31,73826.0,4.01,3.25,3.25,0,*7A
1496621328.64,31744,18.31,73830.3,4.03,3.29,3.29,0,*7F
1496621329.82,31745,18.31,73826.8,3.99,3.25,3.25,0,*7A
1496621331.0,31746,18.31,73828.3,3.99,3.25,3.25,0,*79